Flag for Mexico Weather past 2 weeks in Mexicali, Baja California, Mexico

Now
98 °F

Sunny.


Feels Like: 103 °F
Forecast: 89 / 107 °F
Wind: 10 mph from South

Location: Imperial County Airport

Current Time: Aug 1, 2014 at 10:14:43 AM

Latest Report: Aug 1, 2014 at 9:53 AM


Visibility: 10 mi

Pressure: 29.85 "Hg

Humidity: 38%

Dew point: 68 °F

Location of MexicaliLocation

Historic Weather in Mexicali — Graph

°F

Mexicali temperature yesterday

Maximum temperature yesterday: 110 °F (at 3:53 PM)
Minimum temperature yesterday: 87 °F (at 3:53 AM)
Average temperature yesterday: 96 °F

Past Weeks' High & Low Weather Summary

 TemperatureHumidityPressure
High116 °F (Jul 23, 5:53 PM)70% (Jul 27, 5:53 AM)29.97 "Hg (Jul 27, 5:53 AM)
Low73 °F (Jul 22, 5:53 AM)6% (Jul 17, 2:53 PM)29.58 "Hg (Jul 24, 5:53 PM)
Average95 °F30%29.79 "Hg
* Reported Jul 17 8:53 AM — Aug 1 8:53 AM, Mexicali, Weather by CustomWeather, © 2014

Note: Actual official high and low records may vary slightly from our data, if they occured in-between our weather recording intervals... More about our weather records

Advertising

Mexicali weather history for previous 24 hours

 ConditionsComfort  
Time TempWeatherWind HumidityBarometerVisibility
8:53 AM
Aug 1
96 °FSunny.12 mph46%29.85 "Hg10 mi
7:53 AM93 °FSunny.14 mph52%29.83 "Hg10 mi
6:53 AM89 °FClear.14 mph65%29.82 "Hg10 mi
5:53 AM87 °FClear.10 mph67%29.80 "Hg10 mi
4:53 AM88 °FClear.14 mph61%29.78 "Hg10 mi
3:53 AM88 °FClear.14 mph65%29.77 "Hg10 mi
2:53 AM88 °FClear.10 mph67%29.75 "Hg10 mi
1:53 AM89 °FClear.9 mph63%29.74 "Hg10 mi
12:53 AM90 °FClear.6 mph63%29.73 "Hg10 mi
11:53 PM
Jul 31
91 °FClear.12 mph61%29.74 "Hg10 mi
10:53 PM92 °FClear.13 mph60%29.74 "Hg10 mi
9:53 PM96 °FClear.6 mph44%29.73 "Hg10 mi
8:53 PM98 °FClear.13 mph40%29.72 "Hg10 mi
7:53 PM100 °FSunny.16 mph37%29.70 "Hg10 mi
6:53 PM103 °FSunny.16 mph31%29.69 "Hg10 mi
5:53 PM106 °FSunny.14 mph26%29.69 "Hg10 mi
4:53 PM108 °FSunny.9 mph25%29.70 "Hg10 mi
3:53 PM110 °FSunny.12 mph23%29.71 "Hg10 mi
2:53 PM109 °FSunny.N/A20%29.74 "Hg10 mi
Weather by CustomWeather, © 2014

See weather overviewHow to use our weather pages